Weather History for Springfield, MO

Change the Weather History Date:

Monday, January 28, 2013

  Actual Average Record
Temperature  
Mean Temperature 65 °F 33 °F  
Max Temperature 74 °F 44 °F 74 °F (2013)
Min Temperature 55 °F 23 °F -4 °F (1977)
Degree Days  
Heating Degree Days 0 32  
Month to date heating degree days 793 911  
Since 1 July heating degree days 2440 2721  
Cooling Degree Days 0 0  
Month to date cooling degree days 0 0  
Year to date cooling degree days 0 0  
Growing Degree Days 10 (Base 50)    
Moisture  
Dew Point 57 °F    
Average Humidity 73    
Maximum Humidity 93    
Minimum Humidity 53    
Precipitation  
Precipitation 0.00 in 0.08 in 0.83 in (2006)
Month to date precipitation 1.40 2.24  
Year to date precipitation 1.40 2.24  
Snow  
Snow 0.00 in - - ()
Month to date snowfall 0.1  
Since 1 July snowfall 1.4  
Snow Depth 0.00 in    
Sea Level Pressure  
Sea Level Pressure 29.89 in    
Wind  
Wind Speed 17 mph (South)    
Max Wind Speed 32 mph    
Max Gust Speed 40 mph    
Visibility 10 miles    
Events      
T = Trace of Precipitation, MM = Missing Value Source: NWS Daily Summary

Daily Weather History Graph

Daily Weather History Graph

Search for Another Location

Airport:

Trip Planner

Search our weather history database for the weather conditions in past years. The results will help you decide how hot, cold, wet, or windy it might be!

Date:

Astronomy

Jan. 28, 2013 Rise Set
Actual Time 7:19 AM CST 5:34 PM CST
Civil Twilight 6:51 AM CST 6:01 PM CST
Nautical Twilight 6:20 AM CST 6:33 PM CST
Astronomical Twilight 5:49 AM CST 7:03 PM CST
Moon 7:25 PM CST (1/28) 7:48 AM CST (1/28)
Length of Visible Light 11h 10m
Length of Day
10h 14m
Full, 98% of the Moon is Illuminated
Jan 28
Full
Feb 3
Last Quarter
Feb 10
New
Feb 17
First Quarter
Feb 25
Full

Hourly Weather History & Observations

Time (CST) Temp. Dew Point Humidity Pressure Visibility Wind Dir Wind Speed Gust Speed Precip Events Conditions
12:23 AM 55.0 °F 52.0 °F 89% 29.93 in 10.0 mi SSE 15.0 mph - N/A   Overcast
12:33 AM 55.0 °F 52.0 °F 89% 29.93 in 10.0 mi South 15.0 mph - N/A   Overcast
12:52 AM 55.9 °F 53.1 °F 90% 29.92 in 10.0 mi South 16.1 mph - N/A   Overcast
1:52 AM 55.9 °F 53.1 °F 90% 29.93 in 10.0 mi South 15.0 mph - N/A   Overcast
2:52 AM 57.9 °F 55.0 °F 90% 29.92 in 10.0 mi South 13.8 mph - N/A   Overcast
3:52 AM 60.1 °F 55.9 °F 86% 29.91 in 10.0 mi South 16.1 mph - N/A   Overcast
4:52 AM 60.1 °F 55.9 °F 86% 29.91 in 10.0 mi South 13.8 mph - N/A   Overcast
5:52 AM 61.0 °F 57.0 °F 87% 29.91 in 10.0 mi South 12.7 mph - N/A   Overcast
6:52 AM 62.1 °F 57.9 °F 86% 29.91 in 10.0 mi South 16.1 mph - N/A   Overcast
7:52 AM 63.0 °F 57.9 °F 84% 29.93 in 10.0 mi South 15.0 mph - N/A   Overcast
8:52 AM 64.0 °F 59.0 °F 84% 29.93 in 10.0 mi South 17.3 mph - N/A   Mostly Cloudy
9:24 AM 64.9 °F 59.0 °F 81% 29.95 in 10.0 mi South 16.1 mph - N/A   Mostly Cloudy
9:44 AM 66.0 °F 60.1 °F 81% 29.95 in 10.0 mi SSW 15.0 mph - N/A   Overcast
9:52 AM 66.0 °F 59.0 °F 78% 29.94 in 10.0 mi South 13.8 mph - N/A   Overcast
10:52 AM 68.0 °F 59.0 °F 73% 29.94 in 10.0 mi SSW 18.4 mph - N/A   Overcast
11:52 AM 70.0 °F 59.0 °F 68% 29.92 in 10.0 mi SSW 19.6 mph 35.7 mph N/A   Overcast
12:14 PM 69.8 °F 59.0 °F 68% 29.93 in 10.0 mi SSW 21.9 mph 40.3 mph N/A   Overcast
12:52 PM 70.0 °F 57.9 °F 65% 29.90 in 10.0 mi SSW 18.4 mph 28.8 mph N/A   Overcast
1:52 PM 73.0 °F 57.0 °F 57% 29.86 in 10.0 mi SSW 24.2 mph 32.2 mph N/A   Mostly Cloudy
2:52 PM 73.9 °F 57.0 °F 55% 29.85 in 10.0 mi SSW 23.0 mph 32.2 mph N/A   Clear
3:52 PM 73.0 °F 55.9 °F 55% 29.85 in 10.0 mi SSW 24.2 mph 28.8 mph N/A   Clear
4:52 PM 71.1 °F 57.0 °F 61% 29.84 in 10.0 mi South 17.3 mph - N/A   Overcast
5:52 PM 66.9 °F 57.0 °F 70% 29.84 in 10.0 mi South 12.7 mph - N/A   Mostly Cloudy
6:52 PM 68.0 °F 57.0 °F 68% 29.83 in 10.0 mi South 16.1 mph - N/A   Overcast
7:52 PM 66.9 °F 57.0 °F 70% 29.84 in 10.0 mi South 16.1 mph - N/A   Overcast
8:52 PM 66.0 °F 57.9 °F 75% 29.83 in 10.0 mi South 17.3 mph - N/A   Overcast
9:52 PM 66.0 °F 59.0 °F 78% 29.81 in 10.0 mi South 16.1 mph - N/A   Overcast
10:52 PM 64.9 °F 59.0 °F 81% 29.80 in 10.0 mi South 18.4 mph 26.5 mph N/A   Clear
11:52 PM 64.0 °F 57.9 °F 80% 29.80 in 10.0 mi South 15.0 mph - N/A   Clear